Time,TemperatureF,DewpointF,PressureIn,WindDirection,WindDirectionDegrees,WindSpeedMPH,WindSpeedGustMPH,Humidity,HourlyPrecipIn,Conditions,Clouds,dailyrainin,SoftwareType,DateUTC
2013-03-30 00:11:00,31.5,29.0,30.02,NNW,338,0.0,3.0,91,0.00,,,0.00,weatherlink.com 1.10,2013-03-30 04:11:00,
2013-03-30 00:26:00,31.4,29.0,30.02,NNW,335,3.0,6.0,91,0.00,,,0.00,weatherlink.com 1.10,2013-03-30 04:26:00,
2013-03-30 00:41:00,31.4,29.0,30.03,NNW,329,2.0,3.0,91,0.00,,,0.00,weatherlink.com 1.10,2013-03-30 04:41:00,
2013-03-30 00:56:00,31.2,29.0,30.03,NW,311,0.0,4.0,91,0.00,,,0.00,weatherlink.com 1.10,2013-03-30 04:56:00,
2013-03-30 01:11:00,31.1,29.0,30.02,NNW,333,5.0,8.0,91,0.00,,,0.00,weatherlink.com 1.10,2013-03-30 05:11:00,
2013-03-30 01:41:00,30.7,29.0,30.02,NW,308,0.0,4.0,92,0.00,,,0.00,weatherlink.com 1.10,2013-03-30 05:41:00,
2013-03-30 02:41:00,30.3,28.0,30.02,NNE,20,0.0,4.0,91,0.00,,,0.00,weatherlink.com 1.10,2013-03-30 06:41:00,
2013-03-30 02:56:00,30.5,28.0,30.02,NNW,340,0.0,4.0,90,0.00,,,0.00,weatherlink.com 1.10,2013-03-30 06:56:00,
2013-03-30 03:11:00,30.5,28.0,30.02,NNW,344,1.0,5.0,89,0.00,,,0.00,weatherlink.com 1.10,2013-03-30 07:11:00,
2013-03-30 03:26:00,30.5,28.0,30.02,NNW,338,2.0,6.0,89,0.00,,,0.00,weatherlink.com 1.10,2013-03-30 07:26:00,
2013-03-30 03:41:00,30.2,27.0,30.02,NNW,336,2.0,5.0,89,0.00,,,0.00,weatherlink.com 1.10,2013-03-30 07:41:00,
2013-03-30 03:56:00,29.7,27.0,30.02,NNW,338,0.0,5.0,89,0.00,,,0.00,weatherlink.com 1.10,2013-03-30 07:56:00,
2013-03-30 04:11:00,29.1,27.0,30.02,NW,325,1.0,3.0,90,0.00,,,0.00,weatherlink.com 1.10,2013-03-30 08:11:00,
2013-03-30 04:26:00,28.7,26.0,30.02,NNW,329,1.0,5.0,90,0.00,,,0.00,weatherlink.com 1.10,2013-03-30 08:26:00,
2013-03-30 04:41:00,28.3,26.0,30.02,NNW,329,0.0,1.0,90,0.00,,,0.00,weatherlink.com 1.10,2013-03-30 08:41:00,
2013-03-30 04:56:00,28.2,26.0,30.02,NNW,340,1.0,4.0,90,0.00,,,0.00,weatherlink.com 1.10,2013-03-30 08:56:00,
2013-03-30 05:11:00,28.1,26.0,30.02,NNW,341,0.0,3.0,91,0.00,,,0.00,weatherlink.com 1.10,2013-03-30 09:11:00,
2013-03-30 05:26:00,28.0,26.0,30.03,North,355,1.0,3.0,90,0.00,,,0.00,weatherlink.com 1.10,2013-03-30 09:26:00,
2013-03-30 05:41:00,27.6,25.0,30.03,NNW,338,2.0,4.0,90,0.00,,,0.00,weatherlink.com 1.10,2013-03-30 09:41:00,
2013-03-30 05:56:00,27.7,25.0,30.03,NNW,348,1.0,4.0,90,0.00,,,0.00,weatherlink.com 1.10,2013-03-30 09:56:00,
2013-03-30 06:11:00,27.3,25.0,30.03,North,350,1.0,5.0,91,0.00,,,0.00,weatherlink.com 1.10,2013-03-30 10:11:00,
2013-03-30 06:26:00,27.1,25.0,30.03,NW,325,1.0,6.0,91,0.00,,,0.00,weatherlink.com 1.10,2013-03-30 10:26:00,
2013-03-30 06:41:00,27.2,25.0,30.04,NNW,338,3.0,5.0,91,0.00,,,0.00,weatherlink.com 1.10,2013-03-30 10:41:00,
2013-03-30 06:56:00,27.8,26.0,30.04,NNW,338,1.0,4.0,91,0.00,,,0.00,weatherlink.com 1.10,2013-03-30 10:56:00,
2013-03-30 07:11:00,28.6,26.0,30.04,NW,319,1.0,4.0,89,0.00,,,0.00,weatherlink.com 1.10,2013-03-30 11:11:00,
2013-03-30 07:26:00,29.4,26.0,30.04,NNW,338,1.0,3.0,88,0.00,,,0.00,weatherlink.com 1.10,2013-03-30 11:26:00,
2013-03-30 07:41:00,30.5,27.0,30.04,NNW,336,0.0,6.0,85,0.00,,,0.00,weatherlink.com 1.10,2013-03-30 11:41:00,
2013-03-30 07:56:00,30.8,26.0,30.05,NNW,341,1.0,8.0,83,0.00,,,0.00,weatherlink.com 1.10,2013-03-30 11:56:00,
2013-03-30 08:11:00,31.3,26.0,30.05,NW,313,3.0,6.0,81,0.00,,,0.00,weatherlink.com 1.10,2013-03-30 12:11:00,
2013-03-30 08:27:00,32.3,26.0,30.06,NW,321,2.0,5.0,79,0.00,,,0.00,weatherlink.com 1.10,2013-03-30 12:27:00,
2013-03-30 08:42:00,32.6,26.0,30.05,NNW,327,4.0,9.0,75,0.00,,,0.00,weatherlink.com 1.10,2013-03-30 12:42:00,
2013-03-30 08:57:00,33.4,25.0,30.06,North,355,5.0,9.0,72,0.00,,,0.00,weatherlink.com 1.10,2013-03-30 12:57:00,
2013-03-30 09:12:00,33.5,25.0,30.06,North,11,6.0,9.0,70,0.00,,,0.00,weatherlink.com 1.10,2013-03-30 13:12:00,
2013-03-30 09:27:00,34.2,25.0,30.06,NNE,27,4.0,9.0,68,0.00,,,0.00,weatherlink.com 1.10,2013-03-30 13:27:00,
2013-03-30 09:42:00,34.3,25.0,30.06,NNE,30,4.0,11.0,69,0.00,,,0.00,weatherlink.com 1.10,2013-03-30 13:42:00,
2013-03-30 10:00:00,35.0,25.0,30.07,NNW,333,5.0,10.0,67,0.00,,,0.00,weatherlink.com 1.10,2013-03-30 14:00:00,
2013-03-30 10:12:00,34.8,24.0,30.07,NNE,19,9.0,12.0,65,0.00,,,0.00,weatherlink.com 1.10,2013-03-30 14:12:00,
2013-03-30 10:27:00,35.2,23.0,30.07,North,11,8.0,14.0,61,0.00,,,0.00,weatherlink.com 1.10,2013-03-30 14:27:00,
2013-03-30 10:42:00,36.1,20.0,30.06,North,360,8.0,13.0,52,0.00,,,0.00,weatherlink.com 1.10,2013-03-30 14:42:00,
2013-03-30 10:57:00,36.7,18.0,30.06,NE,43,4.0,13.0,47,0.00,,,0.00,weatherlink.com 1.10,2013-03-30 14:57:00,
2013-03-30 11:12:00,36.8,17.0,30.06,North,9,8.0,13.0,44,0.00,,,0.00,weatherlink.com 1.10,2013-03-30 15:12:00,
2013-03-30 11:27:00,37.2,17.0,30.06,NNE,17,4.0,17.0,44,0.00,,,0.00,weatherlink.com 1.10,2013-03-30 15:27:00,
2013-03-30 11:42:00,36.3,17.0,30.06,NNE,17,4.0,16.0,45,0.00,,,0.00,weatherlink.com 1.10,2013-03-30 15:42:00,
2013-03-30 12:58:00,37.2,17.0,30.06,NE,37,11.0,13.0,44,0.00,,,0.00,weatherlink.com 1.10,2013-03-30 16:58:00,
2013-03-30 13:13:00,37.5,17.0,30.06,NNE,15,9.0,15.0,43,0.00,,,0.00,weatherlink.com 1.10,2013-03-30 17:13:00,
2013-03-30 13:28:00,37.5,18.0,30.05,North,11,8.0,13.0,45,0.00,,,0.00,weatherlink.com 1.10,2013-03-30 17:28:00,
2013-03-30 13:43:00,38.2,17.0,30.05,North,360,4.0,12.0,42,0.00,,,0.00,weatherlink.com 1.10,2013-03-30 17:43:00,
2013-03-30 13:58:00,38.4,17.0,30.05,NNE,24,8.0,13.0,42,0.00,,,0.00,weatherlink.com 1.10,2013-03-30 17:58:00,
2013-03-30 14:13:00,38.2,16.0,30.05,ENE,62,10.0,12.0,41,0.00,,,0.00,weatherlink.com 1.10,2013-03-30 18:13:00,
2013-03-30 14:28:00,38.2,16.0,30.05,NNE,25,9.0,12.0,40,0.00,,,0.00,weatherlink.com 1.10,2013-03-30 18:28:00,
2013-03-30 14:43:00,38.7,15.0,30.05,NNE,19,11.0,14.0,38,0.00,,,0.00,weatherlink.com 1.10,2013-03-30 18:43:00,
2013-03-30 14:58:00,38.4,15.0,30.05,NE,37,7.0,13.0,39,0.00,,,0.00,weatherlink.com 1.10,2013-03-30 18:58:00,
2013-03-30 15:13:00,38.5,15.0,30.05,NW,322,7.0,10.0,38,0.00,,,0.00,weatherlink.com 1.10,2013-03-30 19:13:00,
2013-03-30 15:28:00,38.6,15.0,30.05,NNE,17,3.0,16.0,39,0.00,,,0.00,weatherlink.com 1.10,2013-03-30 19:28:00,
2013-03-30 15:43:00,38.0,14.0,30.05,NE,44,10.0,15.0,38,0.00,,,0.00,weatherlink.com 1.10,2013-03-30 19:43:00,
2013-03-30 15:58:00,38.8,14.0,30.05,North,350,4.0,12.0,37,0.00,,,0.00,weatherlink.com 1.10,2013-03-30 19:58:00,
2013-03-30 16:13:00,38.8,14.0,30.05,North,5,8.0,13.0,36,0.00,,,0.00,weatherlink.com 1.10,2013-03-30 20:13:00,
2013-03-30 16:28:00,39.1,15.0,30.05,North,355,6.0,13.0,37,0.00,,,0.00,weatherlink.com 1.10,2013-03-30 20:28:00,
2013-03-30 16:43:00,38.3,15.0,30.05,NNE,24,11.0,13.0,39,0.00,,,0.00,weatherlink.com 1.10,2013-03-30 20:43:00,
2013-03-30 16:58:00,38.4,15.0,30.05,NNE,14,7.0,12.0,39,0.00,,,0.00,weatherlink.com 1.10,2013-03-30 20:58:00,
2013-03-30 17:13:00,38.0,15.0,30.05,NNE,30,3.0,12.0,39,0.00,,,0.00,weatherlink.com 1.10,2013-03-30 21:13:00,
2013-03-30 17:28:00,37.6,15.0,30.05,NNE,33,9.0,13.0,40,0.00,,,0.00,weatherlink.com 1.10,2013-03-30 21:28:00,
2013-03-30 17:58:00,37.1,14.0,30.06,North,11,5.0,10.0,39,0.00,,,0.00,weatherlink.com 1.10,2013-03-30 21:58:00,
2013-03-30 18:13:00,36.6,14.0,30.06,NNE,28,7.0,12.0,40,0.00,,,0.00,weatherlink.com 1.10,2013-03-30 22:13:00,
2013-03-30 18:28:00,36.1,14.0,30.06,NNE,19,4.0,8.0,41,0.00,,,0.00,weatherlink.com 1.10,2013-03-30 22:28:00,
2013-03-30 18:43:00,35.5,14.0,30.06,North,360,4.0,7.0,41,0.00,,,0.00,weatherlink.com 1.10,2013-03-30 22:43:00,
2013-03-30 18:58:00,35.0,14.0,30.07,North,11,3.0,7.0,42,0.00,,,0.00,weatherlink.com 1.10,2013-03-30 22:58:00,
2013-03-30 19:13:00,34.3,14.0,30.07,NNE,25,2.0,6.0,43,0.00,,,0.00,weatherlink.com 1.10,2013-03-30 23:13:00,
2013-03-30 19:28:00,33.5,14.0,30.07,North,11,1.0,4.0,44,0.00,,,0.00,weatherlink.com 1.10,2013-03-30 23:28:00,
2013-03-30 19:43:00,32.7,13.0,30.08,North,11,0.0,5.0,45,0.00,,,0.00,weatherlink.com 1.10,2013-03-30 23:43:00,
2013-03-30 19:58:00,32.0,13.0,30.08,North,10,0.0,4.0,46,0.00,,,0.00,weatherlink.com 1.10,2013-03-30 23:58:00,
2013-03-30 20:13:00,30.4,15.0,30.09,NW,319,0.0,1.0,53,0.00,,,0.00,weatherlink.com 1.10,2013-03-31 00:13:00,
2013-03-30 20:28:00,29.7,14.0,30.10,NW,319,0.0,0.0,53,0.00,,,0.00,weatherlink.com 1.10,2013-03-31 00:28:00,
2013-03-30 20:43:00,29.2,14.0,30.10,NW,319,0.0,0.0,53,0.00,,,0.00,weatherlink.com 1.10,2013-03-31 00:43:00,
2013-03-30 20:58:00,29.2,14.0,30.10,NW,319,0.0,0.0,53,0.00,,,0.00,weatherlink.com 1.10,2013-03-31 00:58:00,
2013-03-30 21:13:00,28.2,16.0,30.10,NW,319,0.0,0.0,61,0.00,,,0.00,weatherlink.com 1.10,2013-03-31 01:13:00,
2013-03-30 21:28:00,27.0,17.0,30.10,NW,319,0.0,0.0,65,0.00,,,0.00,weatherlink.com 1.10,2013-03-31 01:28:00,
2013-03-30 21:43:00,26.8,16.0,30.10,NW,319,0.0,2.0,64,0.00,,,0.00,weatherlink.com 1.10,2013-03-31 01:43:00,
2013-03-30 21:58:00,25.8,17.0,30.10,NW,319,0.0,0.0,68,0.00,,,0.00,weatherlink.com 1.10,2013-03-31 01:58:00,
2013-03-30 22:13:00,25.7,17.0,30.10,NW,319,0.0,0.0,70,0.00,,,0.00,weatherlink.com 1.10,2013-03-31 02:13:00,
2013-03-30 22:28:00,25.1,17.0,30.10,NW,319,0.0,0.0,71,0.00,,,0.00,weatherlink.com 1.10,2013-03-31 02:28:00,
2013-03-30 22:43:00,24.4,17.0,30.10,NW,319,0.0,0.0,73,0.00,,,0.00,weatherlink.com 1.10,2013-03-31 02:43:00,
2013-03-30 22:58:00,23.9,17.0,30.10,NW,319,0.0,0.0,75,0.00,,,0.00,weatherlink.com 1.10,2013-03-31 02:58:00,
2013-03-30 23:28:00,22.4,17.0,30.10,NW,319,0.0,0.0,78,0.00,,,0.00,weatherlink.com 1.10,2013-03-31 03:28:00,
2013-03-30 23:43:00,22.0,16.0,30.10,NW,319,0.0,0.0,78,0.00,,,0.00,weatherlink.com 1.10,2013-03-31 03:43:00,
2013-03-30 23:58:00,21.5,16.0,30.10,NW,319,0.0,0.0,80,0.00,,,0.00,weatherlink.com 1.10,2013-03-31 03:58:00,